AirNav   Free SoundLink Mini II speaker
 
 1103 users online  

H96 Benton Municipal Airport
Benton, Illinois, USA

GOING TO BENTON?


FAA INFORMATION EFFECTIVE 26 MARCH 2020

Location

FAA Identifier: H96
Lat/Long: 38-00-30.6000N 088-56-04.0000W
38-00.510000N 088-56.066667W
38.0085000,-88.9344444
(estimated)
Elevation: 444.1 ft. / 135.4 m (surveyed)
Variation: 02W (2010)
From city: 1 mile W of BENTON, IL
Time zone: UTC -5 (UTC -6 during Standard Time)
Zip code: 62812

Airport Operations

Airport use: Open to the public
Activation date: 04/1947
Control tower: no
ARTCC: KANSAS CITY CENTER
FSS: SAINT LOUIS FLIGHT SERVICE STATION
NOTAMs facility: STL (NOTAM-D service available)
Attendance: UNATTND
Wind indicator: lighted
Segmented circle: no
Lights: MIRL RY 18/36 PRESET ON LOW INTST; TO INCR INTST ACTVT - CTAF.
Beacon: white-green (lighted land airport)
Operates sunset to sunrise.

Airport Communications

CTAF/UNICOM: 122.8
WX AWOS-3 at MWA (16 nm S): 119.675 (618-942-8877)
WX AWOS-3PT at MVN (19 nm N): 118.2 (618-242-7933)
  • APCH/DEP SVC PRVDD BY KANSAS CITY ARTCC ON FREQS 127.475/346.275 (MARION RCAG).

Nearby radio navigation aids

VOR radial/distance  VOR name  Freq  Var
MWAr009/15.7MARION VOR/DME110.4004E
ENLr153/26.9CENTRALIA VORTAC115.0004E

 
NDB name  Hdg/Dist  Freq  Var  ID
JONNY009/10.338201EMW -- .--
WAYNE COUNTY229/33.325701WFWC ..-. .-- -.-.

Airport Services

Fuel available: 100LL
Parking: tiedowns

Runway Information

Runway 18/36

Dimensions: 4002 x 75 ft. / 1220 x 23 m
Surface: asphalt, in good condition
Weight bearing capacity: 
Single wheel: 4.0
Runway edge lights: medium intensity
Runway edge markings: RWY MARKING FADED.
RUNWAY 18  RUNWAY 36
Latitude: 38-00.840073N38-00.180805N
Longitude: 088-56.071950W088-56.061308W
Elevation: 439.1 ft.444.1 ft.
Traffic pattern: leftleft
Runway heading: 181 magnetic, 179 true001 magnetic, 359 true
Markings: nonprecision, in poor conditionnonprecision, in poor condition
Visual slope indicator: 4-light PAPI on left (3.33 degrees glide path)
Runway end identifier lights: yesyes
Touchdown point: yes, no lightsyes, no lights
Obstructions: none68 ft. tree, 1226 ft. from runway, 135 ft. right of centerline, 15:1 slope to clear

Airport Ownership and Management from official FAA records

Ownership: Publicly-owned
Owner: CITY OF BENTON
P.O. BOX 640, 1403 SOUTH MAIN ST
BENTON, IL 62812
Phone 618-439-6131
Manager: CHARLES CASEY
P.O. BOX 640
BENTON, IL 62812
Phone (618) 927-0442
EMAIL CHRLSCASEY@YAHOO.COM (ALL LOWER CASE)

Airport Operational Statistics

Aircraft based on the field: 5
Single engine airplanes: 5
    
Aircraft operations: avg 22/day *
49% local general aviation
45% transient general aviation
5% air taxi
<1% military
* for 12-month period ending 31 July 2019

Additional Remarks

FOR CD CTC KANSAS CITY ARTCC AT 913-254-8508.

Instrument Procedures

NOTE: All procedures below are presented as PDF files. If you need a reader for these files, you should download the free Adobe Reader.

NOT FOR NAVIGATION. Please procure official charts for flight.
FAA instrument procedures published for use from 26 March 2020 at 0901Z to 23 April 2020 at 0900Z.

 
IAPs - Instrument Approach Procedures
RNAV (GPS) RWY 18   download (204KB)
NOTE: Special Take-Off Minimums/Departure Procedures apply   download (201KB)

Other nearby airports with instrument procedures:

KMWA - Veterans Airport of Southern Illinois (16 nm S)
KMVN - Mount Vernon Airport (19 nm N)
KPJY - Pinckneyville-Du Quoin Airport (20 nm W)
KMDH - Southern Illinois Airport (20 nm SW)
KHSB - Harrisburg-Raleigh Airport (22 nm SE)
 
Loc | Ops | Rwys | IFR | FBO | Links
Com | Nav | Svcs | Stats | Notes
Area around H96 (Benton Municipal Airport)
 
Road maps at: MapQuest Bing Google
 
Aerial photo
WARNING: Photo may not be current or correct
Aerial photo of H96 (Benton Municipal Airport)
Photo by LD Pahnke
Photo taken 08-May-2011
looking southeast from 3500'.

Do you have a better or more recent aerial photo of Benton Municipal Airport that you would like to share? If so, please send us your photo.

 
Sectional chart

 
Airport distance calculator
Flying to Benton Municipal Airport? Find the distance to fly.

From to H96

Sunrise and sunset
Times for 06-Apr-2020
 Local
(UTC-5)
 Zulu
(UTC)
Morning civil twilight06:0611:06
Sunrise06:3311:33
Sunset19:2300:23
Evening civil twilight19:5000:50

Current date and time
Zulu (UTC)  06-Apr-2020 21:24:38
Local (UTC-5)  06-Apr-2020 16:24:38
 
METAR
KMWA 
16nm S 
062045Z 20008KT 20SM BKN050 24/13 A2999
KMVN 
19nm N 
062056Z AUTO 22008KT 10SM FEW050 23/14 A3000 RMK AO2 SLP160 T02330139 56025
KMDH 
20nm SW 
062052Z 20009KT 10SM FEW050 SCT090 24/12 A2999 RMK AO2 SLP153 T02440122 56026
KHSB 
22nm SE 
062055Z AUTO 22004KT 10SM SCT050 24/12 A3000 RMK AO2 T02440124
KENL 
31nm N 
062055Z AUTO 18009KT 10SM OVC045 23/14 A2998 RMK AO2 T02250140
TAF
KMVN 
19nm N 
061742Z 0618/0718 19007KT P6SM SCT040 FM062300 19005KT P6SM SCT070 FM071400 23009KT P6SM BKN022
NOTAMs
Click for the latest NOTAMs
NOTAMs are issued by the DoD/FAA and will open in a separate window not controlled by AirNav.

 

 
 

FBO, Fuel Providers, and Aircraft Ground Support

  
 Business Name 
 
 Contact 
 
 Services / Description 
 
Fuel Prices
 
Comments
  
Benton Municipal Airport 618-435-3526
no information available

If you are affiliated with Benton Municipal Airport and would like to show here your services, contact info, web link, logo, and more, click here
100LL
PS $4.40 
 Updated 29-May-2016
 
   1 read write
PS=Pump service
Update Fuel Prices
 

Would you like to see your business listed on this page?

 If your business provides an interesting product or service to pilots, flight crews, aircraft, or users of the Benton Municipal Airport, you should consider listing it here.  To start the listing process, click on the button below
 
Add a business
 

Other Pages about Benton Municipal Airport

Update a link
 
Copyright © AirNav, LLC. All rights reserved. Privacy Policy  Contact